TimeNZDT,TemperatureF,Dew PointF,Humidity,Sea Level PressureIn,VisibilityMPH,Wind Direction,Wind SpeedMPH,Gust SpeedMPH,PrecipitationIn,Events,Conditions,WindDirDegrees,DateUTC
12:00 AM,53.6,44.6,72,29.71,-9999.0,NE,10.4,-,N/A,,Clear,50,2013-01-18 11:00:00
1:00 AM,53.6,44.6,72,29.68,-9999.0,NE,12.7,-,N/A,,Clear,40,2013-01-18 12:00:00
2:00 AM,55.4,46.4,72,29.65,-9999.0,ENE,13.8,-,N/A,,Clear,60,2013-01-18 13:00:00
3:00 AM,55.4,46.4,72,29.59,-9999.0,ENE,12.7,-,N/A,,Clear,70,2013-01-18 14:00:00
4:00 AM,53.6,46.4,77,29.53,-9999.0,NE,9.2,-,N/A,,Clear,50,2013-01-18 15:00:00
5:00 AM,55.4,46.4,72,29.47,-9999.0,East,11.5,-,N/A,,Clear,80,2013-01-18 16:00:00
6:00 AM,55.4,48.2,77,29.47,-9999.0,ENE,11.5,-,N/A,,Clear,70,2013-01-18 17:00:00
7:00 AM,57.2,48.2,72,29.47,-9999.0,East,10.4,-,N/A,,Clear,90,2013-01-18 18:00:00
8:00 AM,59.0,50.0,72,29.47,-9999.0,East,9.2,-,N/A,,Clear,80,2013-01-18 19:00:00
9:00 AM,64.4,48.2,56,29.47,-9999.0,ENE,8.1,-,N/A,,Clear,60,2013-01-18 20:00:00
10:00 AM,66.2,48.2,52,29.47,-9999.0,East,11.5,-,N/A,,Clear,80,2013-01-18 21:00:00
11:00 AM,69.8,46.4,43,29.44,-9999.0,East,6.9,-,N/A,,Clear,80,2013-01-18 22:00:00
12:00 PM,71.6,46.4,41,29.42,-9999.0,ENE,5.8,-,N/A,,Clear,60,2013-01-18 23:00:00
1:00 PM,80.6,46.4,30,29.42,-9999.0,NW,18.4,-,N/A,,Clear,310,2013-01-19 00:00:00
2:00 PM,82.4,50.0,32,29.39,-9999.0,NNW,16.1,-,N/A,,Clear,340,2013-01-19 01:00:00
3:00 PM,86.0,50.0,29,29.39,-9999.0,NW,13.8,-,N/A,,Clear,320,2013-01-19 02:00:00
4:00 PM,86.0,50.0,29,29.39,-9999.0,NW,12.7,-,N/A,,Clear,320,2013-01-19 03:00:00
5:00 PM,86.0,50.0,29,29.36,-9999.0,WNW,16.1,-,N/A,,Clear,300,2013-01-19 04:00:00
6:00 PM,84.2,50.0,30,29.36,-9999.0,WNW,16.1,-,N/A,,Clear,300,2013-01-19 05:00:00
7:00 PM,69.8,55.4,60,29.42,-9999.0,SW,28.8,-,N/A,,Clear,230,2013-01-19 06:00:00
8:00 PM,60.8,53.6,77,29.47,6.2,SW,25.3,-,N/A,,Mostly Cloudy,220,2013-01-19 07:00:00
9:00 PM,59.0,50.0,72,29.53,6.2,SW,21.9,-,N/A,,Scattered Clouds,220,2013-01-19 08:00:00
10:00 PM,57.2,48.2,72,29.56,6.2,SW,19.6,31.1,N/A,,Scattered Clouds,220,2013-01-19 09:00:00
11:00 PM,57.2,48.2,72,29.59,6.2,SW,12.7,-,N/A,,Scattered Clouds,230,2013-01-19 10:00:00